TimeMDT,TemperatureF,Dew PointF,Humidity,Sea Level PressureIn,VisibilityMPH,Wind Direction,Wind SpeedMPH,Gust SpeedMPH,PrecipitationIn,Events,Conditions,WindDirDegrees,DateUTC
12:58 AM,62.6,56.7,81,29.97,10.0,NE,3.5,-,N/A,,Overcast,40,2013-09-01 06:58:00
1:58 AM,64.0,55.8,74,29.98,10.0,NW,3.5,-,N/A,,Mostly Cloudy,320,2013-09-01 07:58:00
2:58 AM,63.1,55.0,75,29.97,10.0,Calm,Calm,-,N/A,,Overcast,0,2013-09-01 08:58:00
3:58 AM,64.0,50.0,60,29.97,10.0,North,16.1,-,N/A,,Mostly Cloudy,350,2013-09-01 09:58:00
4:58 AM,63.0,51.3,66,30.03,10.0,North,10.4,-,N/A,,Scattered Clouds,350,2013-09-01 10:58:00
5:58 AM,62.2,52.3,70,30.04,10.0,North,15.0,-,N/A,,Scattered Clouds,350,2013-09-01 11:58:00
6:58 AM,61.5,52.9,73,30.06,10.0,North,15.0,24.2,N/A,,Partly Cloudy,350,2013-09-01 12:58:00
7:04 AM,60.8,53.6,77,30.28,10.0,North,17.3,-,N/A,Rain,Light Rain,360,2013-09-01 13:04:00
7:14 AM,60.8,53.6,77,30.28,10.0,North,18.4,24.2,N/A,,Partly Cloudy,360,2013-09-01 13:14:00
7:58 AM,62.1,52.5,71,30.07,10.0,North,15.0,-,0.00,,Scattered Clouds,360,2013-09-01 13:58:00
8:58 AM,64.0,53.2,68,30.08,10.0,North,15.0,24.2,N/A,,Partly Cloudy,360,2013-09-01 14:58:00
9:58 AM,67.3,54.9,64,30.10,10.0,North,13.8,19.6,N/A,,Scattered Clouds,360,2013-09-01 15:58:00
10:58 AM,70.5,55.4,59,30.09,10.0,North,9.2,-,N/A,,Scattered Clouds,350,2013-09-01 16:58:00
11:58 AM,71.8,55.8,57,30.06,10.0,West,4.6,-,N/A,,Scattered Clouds,280,2013-09-01 17:58:00
12:58 PM,72.3,56.7,58,30.05,10.0,ESE,9.2,-,N/A,,Mostly Cloudy,110,2013-09-01 18:58:00
1:58 PM,68.0,57.4,69,30.06,10.0,SSE,9.2,-,N/A,,Scattered Clouds,150,2013-09-01 19:58:00
2:13 PM,68.0,59.0,73,30.31,10.0,South,8.1,-,N/A,,Mostly Cloudy,190,2013-09-01 20:13:00
2:18 PM,68.0,59.0,73,30.30,10.0,SSE,10.4,-,N/A,,Mostly Cloudy,150,2013-09-01 20:18:00
2:58 PM,67.5,59.5,76,30.05,10.0,SSW,10.4,-,N/A,Thunderstorm,Mostly Cloudy,200,2013-09-01 20:58:00
3:03 PM,68.0,59.0,73,30.30,10.0,SSW,9.2,-,N/A,Thunderstorm,Mostly Cloudy,200,2013-09-01 21:03:00
3:08 PM,68.0,59.0,73,30.30,10.0,South,11.5,-,N/A,Thunderstorm,Mostly Cloudy,180,2013-09-01 21:08:00
3:13 PM,68.0,59.0,73,30.29,10.0,South,10.4,-,N/A,Thunderstorm,Mostly Cloudy,170,2013-09-01 21:13:00
3:18 PM,68.0,59.0,73,30.28,10.0,SSE,10.4,-,N/A,Thunderstorm,Mostly Cloudy,150,2013-09-01 21:18:00
3:21 PM,68.0,59.0,73,30.28,10.0,SSE,8.1,-,N/A,Rain,Light Rain,150,2013-09-01 21:21:00
3:44 PM,66.2,59.0,78,30.30,10.0,SSE,6.9,-,N/A,Thunderstorm,Mostly Cloudy,160,2013-09-01 21:44:00
3:58 PM,66.4,57.7,74,30.06,10.0,South,8.1,-,0.00,Thunderstorm,Overcast,180,2013-09-01 21:58:00
4:05 PM,66.2,57.2,73,30.31,10.0,South,9.2,-,N/A,Rain-Thunderstorm,Light Rain,180,2013-09-01 22:05:00
4:23 PM,66.2,59.0,78,30.32,10.0,SW,6.9,-,N/A,Thunderstorm,Overcast,230,2013-09-01 22:23:00
4:25 PM,66.2,59.0,78,30.33,10.0,SW,6.9,-,N/A,Thunderstorm,Light Drizzle,220,2013-09-01 22:25:00
4:29 PM,66.2,59.0,78,30.33,10.0,SSW,8.1,-,N/A,Rain-Thunderstorm,Light Thunderstorms and Rain,210,2013-09-01 22:29:00
4:44 PM,64.4,60.8,88,30.32,10.0,South,9.2,-,N/A,Rain-Thunderstorm,Light Thunderstorms and Rain,170,2013-09-01 22:44:00
4:49 PM,64.4,60.8,88,30.32,10.0,SSE,9.2,-,N/A,Rain-Thunderstorm,Light Thunderstorms and Rain,160,2013-09-01 22:49:00
4:55 PM,64.4,60.8,88,30.32,9.0,SSE,8.1,-,N/A,Rain-Thunderstorm,Light Rain,150,2013-09-01 22:55:00
4:58 PM,62.6,60.8,94,30.12,9.0,SSE,5.8,-,0.02,Rain-Thunderstorm,Light Rain,160,2013-09-01 22:58:00
5:03 PM,62.6,60.8,94,30.33,10.0,South,8.1,-,N/A,Rain-Thunderstorm,Light Rain,170,2013-09-01 23:03:00
5:08 PM,62.6,60.8,94,30.33,8.0,South,8.1,-,N/A,Rain-Thunderstorm,Light Rain,180,2013-09-01 23:08:00
5:13 PM,62.6,60.8,94,30.33,7.0,South,8.1,-,N/A,Rain,Light Rain,180,2013-09-01 23:13:00
5:18 PM,62.6,60.8,94,30.33,7.0,South,8.1,-,N/A,Rain,Rain,190,2013-09-01 23:18:00
5:48 PM,60.8,59.0,94,30.33,5.0,Variable,4.6,-,N/A,Rain,Rain,0,2013-09-01 23:48:00
5:58 PM,60.8,55.4,82,30.11,6.0,South,2.3,-,0.14,Rain,Light Rain,190,2013-09-01 23:58:00
6:08 PM,60.8,55.4,82,30.30,6.0,SSW,12.7,-,N/A,Rain,Rain,210,2013-09-02 00:08:00
6:23 PM,59.0,57.2,94,30.27,10.0,SE,5.8,-,N/A,Rain,Light Rain,140,2013-09-02 00:23:00
6:35 PM,60.8,57.2,88,30.26,10.0,SSW,5.8,-,N/A,,Scattered Clouds,200,2013-09-02 00:35:00
6:58 PM,60.3,57.4,90,30.06,10.0,NNE,3.5,-,0.06,,Scattered Clouds,20,2013-09-02 00:58:00
7:58 PM,60.1,56.1,87,30.09,10.0,SE,6.9,-,N/A,,Partly Cloudy,130,2013-09-02 01:58:00
8:58 PM,59.5,58.3,96,30.11,10.0,NE,1.2,-,N/A,,Scattered Clouds,50,2013-09-02 02:58:00
9:58 PM,59.2,58.6,98,30.10,10.0,NW,5.8,-,N/A,,Partly Cloudy,320,2013-09-02 03:58:00
10:58 PM,58.5,57.9,98,30.08,10.0,North,5.8,-,N/A,,Partly Cloudy,10,2013-09-02 04:58:00
11:43 PM,59.0,57.2,94,30.31,10.0,North,1.2,-,N/A,,Mostly Cloudy,360,2013-09-02 05:43:00
11:58 PM,58.5,57.9,98,30.06,10.0,NNW,5.8,-,N/A,,Mostly Cloudy,340,2013-09-02 05:58:00